Regional Weather Roundup
Issued by NWS Charleston, SC

Home | Current Version | Previous Version | Text Only | Print | Product List | Glossary On
Versions: 1 2 3 4 5 6 7 8 9 10 11 12 13 14 15 16 17 18 19 20 21 22 23 24 25 26 27 28 29 30 31 32 33 34 35 36 37 38 39 40 41 42 43 44 45 46 47 48 49 50
000
ASUS42 KCHS 051327
RWRCHS

REGIONAL WEATHER ROUNDUP
NATIONAL WEATHER SERVICE CHARLESTON SC
900 AM EDT SUN JUL 05 2015

NOTE: "FAIR" INDICATES FEW OR NO CLOUDS BELOW 12,000 FEET WITH NO
SIGNIFICANT WEATHER AND/OR OBSTRUCTIONS TO VISIBILITY.

NOT ALL STATIONS ARE QUALITY CONTROLLED BY THE NATIONAL
WEATHER SERVICE. USE DATA WITH CAUTION...ESPECIALLY
DEWPOINT OBSERVATIONS.

SCZ027-030-031-034>040-042>050-051400-
...SOUTHEAST SOUTH CAROLINA...

CITY           SKY/WX    TMP DP  RH WIND       PRES   REMARKS
N CHARLESTON   PTSUNNY   77  70  79 W7        30.16R
WATERFRONT PAR   N/A     79  73  82 W6        30.13R
MOUNT PLEASANT FAIR      82  72  69 SW9       30.16S
JOHNS ISLAND   FAIR      81  73  78 SW6       30.16S
PINOPOLIS      NOT AVBL
MONCKS CORNER  FAIR      79  70  73 SW7       30.15F
SUMMERVILLE    FAIR      77  73  88 W3        30.16F
BEAUFORT MCAS  SUNNY     79  71  76 SW8       30.16R
BEAUFORT ARPT  FAIR      81  72  74 SW3       30.16R
HILTON HEAD IS SUNNY     79  72  78 SW9       30.18R
WALTERBORO     SUNNY     77  70  78 W7        30.16S
ALLENDALE      FAIR      77  70  78 VRB3      30.15S

...SOUTHERN MIDLANDS AND PEE DEE...

CITY           SKY/WX    TMP DP  RH WIND       PRES   REMARKS
GEORGETOWN     NOT AVBL
KINGSTREE      NOT AVBL
ORANGEBURG     PTSUNNY   76  70  82 S7        30.15S
BARNWELL       FAIR      79  72  78 SW6       30.16R
AIKEN          NOT AVBL
MANNING        FAIR      77  68  73 W6        30.15S
COLUMBIA       CLOUDY    76  70  82 SW8       30.13S
SUMTER         PTSUNNY   78  70  77 SW8       30.12R
FLORENCE       SUNNY     78  70  76 SW7       30.13S
MYRTLE BEACH   SUNNY     81  70  69 SW8       30.18R
N MYRTLE BEACH PTSUNNY   80  70  71 SW7       30.16R

$$

GAZ063-065-086>088-099>101-113>116-118-119-134>141-150-051400-
...SOUTHEAST GEORGIA...

CITY           SKY/WX    TMP DP  RH WIND       PRES   REMARKS
SAVANNAH ARPT  MOSUNNY   79  70  74 SW7       30.16S
HUNTER AAF     SUNNY     78  73  85 SW7       30.14R
FORT STEWART   SUNNY     79  72  78 SW7       30.15R
STATESBORO     NOT AVBL
SYLVANIA       SUNNY     78  74  87 W5        30.17R
CLAXTON        FAIR      79  73  83 SW3       30.16S

...CSRA...CENTRAL AND FAR SOUTHEAST GEORGIA...

CITY           SKY/WX    TMP DP  RH WIND       PRES   REMARKS
THOMSON        CLOUDY    77  73  86 SW7       30.19S
AUGUSTA-BUSH   PTSUNNY   76  71  85 SW6       30.14R
AUGUSTA-DANIEL PTSUNNY   76  70  82 SW5       30.15R
SWAINSBORO     FAIR      77  77 100 SW3       30.17R
VIDALIA        MOSUNNY   81  72  74 SW8       30.16S
EASTMAN        FAIR      75  75 100 CALM      30.18S
HAZLEHURST     FAIR      81  76  85 CALM      30.15S
ALMA           SUNNY     76  72  87 S5        30.16S
WAYCROSS       SUNNY     82  77  86 SW6       30.17S HX  90
JESUP          FAIR      81  73  78 W6        30.17S
BAXLEY         FAIR      79  73  83 SW3       30.16S
BRUNSWICK      SUNNY     79  72  78 S5        30.18S
SAINT SIMONS   SUNNY     79  72  79 SW8       30.16S

$$

SCZ027-028-034-036>038-045-046-048>050-GAZ119-141-051400-
...LAKE AND SUPPLEMENTAL COASTAL OBSERVATIONS...

STATION/POSITION TIME  TEMP    WIND        PRES    WAVE   SWELL
                       AIR SEA DIR/SP/G            HT/PER HT/PER/DIR
                 (UTC) (F)     (DEG/KT/KT) (MB)    (FT/S) (FT/S/D)
UPR LAKE MARION  NOT AVBL
WINYAH BAY       1200   76     250/  4     1020.0
LAKE MURRAY      1200   74     240/  7/ 10 1019.6R
ACE BASIN NERRS  NOT AVBL
FORT PULASKI     1300   79 84  230/  5/  6 1021.9R
SAPELO ISLAND    1300   80     220/  6     1022.0R

$$

ANZ835-935-AMZ111-154-330-350-352-354-370-450-454-472-051400-
...C-MAN AND BUOY OBSERVATIONS...

STATION/POSITION TIME  TEMP    WIND        PRES    WAVE   SWELL
                       AIR SEA DIR/SP/G            HT/PER HT/PER/DIR
                 (UTC) (F)     (DEG/KT/KT) (MB)    (FT/S) (FT/S/D)
BUOY 41004       1250   81 81  230/ 10/ 12 1021.0R   3/ 9   2/ 9
BUOY 41008       1250   78 78  230/  8/ 10 1021.6R   2/ 8   2/110/ 8
FOLLY BEACH CMAN 1300   81     230/  7/ 11 1021.4R
CAPERS NEARSHORE 1208   80     260/ 14/ 16 1021.3R
FRIPP NEARSHORE  1200   81     260/  8/ 12 1020.6R


STATION/POSITION TIME  TEMP    WIND        PRES    WAVE   SWELL
                       AIR SEA DIR/SP/G            HT/PER HT/PER/DIR
                 (UTC) (F)     (DEG/KT/KT) (MB)    (FT/S) (FT/S/D)
5E ST. MARYS GA  1221      77                N/A     2/ 8
FRYING PAN BUOY  1250   80 78  230/  6/  8 1021.7R   3/ 5   3/170/ 5
BUOY 41025       1250   80 81  240/ 16/ 19 1020.2R   4/ 6   2/190/ 8
CAPE LOOKOUT NC  1300   81     220/ 10/ 12 1020.9R
BUOY 41002       1250   79 80  270/ 10/ 14 1023.2S   4/ 6   3/250/ 6
BUOY 41010       1220   83 84  160/ 10/ 12 1022.0R
ST AUGUSTINE FL  1300   75 72  160/  5/  6 1022.7R


$$


USA.gov is the U.S. government's official web portal to all federal, state and local government web resources and services.